FW0288 Weather Reports


time (UTC)temp
F
wind
direction
speed
knots
gust
knots
rain 1hr
in
rain 24hr
in
rain mn
in
humidity
%
barometer
mb
20260904033049 76 279 0.9 5.2 0.00 0.01 0.00 34 1000.7
20260904031548 76 293 0.0 7.8 0.00 0.01 0.00 34 1000.7
20260904030046 77 289 0.0 4.3 0.00 0.01 0.00 34 1000.6
20260904024546 76 286 0.0 1.7 0.00 0.03 0.00 34 1000.6
20260904023045 77 319 0.0 0.0 0.00 0.03 0.00 34 1000.6
20260904021548 78 302 0.0 1.7 0.00 0.03 0.00 34 1000.3
20260904020043 78 346 0.0 0.0 0.00 0.03 0.00 33 1000.2
20260904014546 79 355 0.0 0.0 0.00 0.03 0.00 31 1000.1
20260904013043 81 340 0.0 0.0 0.00 0.03 0.00 28 1000.1
20260904011543 81 69 0.0 0.0 0.00 0.03 0.00 26 1000.0
20260904010050 83 360 0.0 0.0 0.00 0.03 0.00 26 1000.1
20260904004556 84 360 0.0 0.0 0.00 0.03 0.00 25 1000.1
20260904003039 85 23 0.0 0.9 0.00 0.03 0.00 23 1000.0
20260904001538 84 9 0.0 0.0 0.00 0.03 0.00 23 1000.1
20260904000048 85 13 0.0 0.0 0.00 0.03 0.00 23 1000.0
20260903234543 85 41 0.0 3.5 0.00 0.03 0.00 22 1000.0
20260903233037 86 360 0.0 0.9 0.00 0.03 0.00 22 1000.1
20260903231536 86 355 0.0 0.0 0.00 0.03 0.00 21 1000.0
20260903230035 87 336 0.0 0.9 0.00 0.03 0.00 21 1000.1
20260903224538 88 5 0.0 2.6 0.00 0.03 0.00 20 1000.1
20260903223037 87 360 0.0 3.5 0.00 0.03 0.00 23 1000.3
20260903221529 87 360 0.0 7.0 0.00 0.03 0.00 23 1000.6
20260903220037 86 360 0.9 5.2 0.00 0.03 0.00 22 1000.8
20260903214526 86 23 0.9 7.8 0.00 0.03 0.00 25 1000.9
20260903213035 86 360 0.9 5.2 0.00 0.03 0.00 23 1000.8
20260903211553 86 9 0.0 4.3 0.00 0.03 0.00 25 1001.1
20260903210021 85 360 1.7 5.2 0.00 0.03 0.00 24 1001.3
20260903204519 85 107 0.0 9.6 0.00 0.03 0.00 23 1001.5
20260903203017 85 360 0.0 4.3 0.00 0.03 0.00 22 1001.6
20260903201517 85 360 0.0 3.5 0.00 0.03 0.00 26 1001.6
20260903200013 85 360 0.0 8.7 0.00 0.03 0.00 23 1001.9
20260903194511 84 360 1.7 8.7 0.00 0.03 0.00 26 1002.0
20260903193008 84 360 0.0 7.0 0.00 0.03 0.00 26 1002.1
20260903191513 82 121 1.7 8.7 0.00 0.03 0.00 26 1002.4
20260903190005 83 360 0.9 4.3 0.00 0.03 0.00 30 1002.6
20260903184503 83 360 0.9 4.3 0.00 0.03 0.00 27 1002.7
20260903183004 82 360 0.9 7.0 0.00 0.03 0.00 29 1003.0
20260903181558 83 360 0.0 3.5 0.00 0.03 0.00 26 1003.1
20260903180106 82 22 0.9 7.0 0.00 0.03 0.00 27 1003.3
20260903174609 81 360 0.9 7.8 0.00 0.03 0.00 27 1003.4
20260903173055 81 360 0.0 7.0 0.00 0.03 0.00 30 1003.5
20260903171546 80 63 0.0 5.2 0.00 0.03 0.00 29 1003.6
20260903170105 80 360 0.0 5.2 0.00 0.03 0.00 32 1003.6
20260903164549 80 360 1.7 5.2 0.00 0.03 0.00 33 1003.6
20260903163036 81 61 0.0 1.7 0.00 0.03 0.00 29 1003.7
20260903161532 82 65 0.0 0.0 0.00 0.03 0.00 29 1003.6
20260903160031 80 117 0.0 0.0 0.00 0.03 0.00 31 1003.7
20260903154527 79 360 0.0 3.5 0.00 0.03 0.00 37 1003.7
20260903153025 79 98 0.0 0.0 0.00 0.03 0.00 34 1003.7
20260903151520 78 111 0.0 1.7 0.00 0.03 0.00 36 1003.8
20260903150023 76 93 0.0 1.7 0.00 0.03 0.00 41 1003.9
20260903144511 77 118 0.0 1.7 0.00 0.03 0.00 39 1004.1
20260903143007 74 142 0.0 0.0 0.00 0.03 0.00 41 1004.1
20260903141504 73 230 0.0 0.0 0.00 0.03 0.00 47 1004.1
20260903140058 69 231 0.0 0.0 0.00 0.03 0.00 48 1004.2
20260903134558 66 232 0.0 0.0 0.00 0.03 0.00 47 1004.1
20260903133053 63 208 0.0 0.0 0.00 0.03 0.00 51 1004.0
20260903131554 61 202 0.0 0.0 0.00 0.03 0.00 57 1003.9
20260903130044 60 178 0.0 0.0 0.00 0.03 0.00 59 1003.8
20260903124540 59 178 0.0 0.0 0.00 0.03 0.00 61 1003.5
20260903123036 58 178 0.0 0.0 0.00 0.03 0.00 62 1003.3
20260903121533 58 178 0.0 0.0 0.00 0.03 0.00 62 1003.3
20260903120031 58 177 0.0 0.0 0.00 0.03 0.00 62 1003.2
20260903114529 59 177 0.0 0.0 0.00 0.03 0.00 60 1002.9
20260903113030 59 113 0.0 0.0 0.00 0.03 0.00 60 1003.0
20260903111551 59 61 0.0 0.0 0.00 0.03 0.00 60 1003.0
20260903110027 60 60 0.0 0.0 0.00 0.03 0.00 57 1002.9
20260903104527 59 59 0.0 0.0 0.00 0.03 0.00 59 1003.0
20260903103025 61 304 0.0 0.0 0.00 0.03 0.00 58 1002.8
20260903101524 60 304 0.0 0.0 0.00 0.03 0.00 60 1002.9
20260903100023 60 319 0.0 0.0 0.00 0.03 0.00 61 1002.9
20260903094518 61 319 0.0 0.0 0.00 0.03 0.00 61 1003.0
20260903093029 62 319 0.0 0.9 0.00 0.03 0.00 60 1003.0
20260903091528 62 346 0.0 0.0 0.00 0.03 0.00 63 1003.0
20260903090014 62 345 0.0 1.7 0.00 0.03 0.00 63 1003.0
20260903084513 62 355 0.0 0.0 0.00 0.03 0.00 62 1002.8
20260903083010 64 267 0.0 0.0 0.00 0.03 0.00 60 1002.7
20260903081508 64 269 0.0 0.0 0.00 0.03 0.00 58 1002.6
20260903080005 65 212 0.0 0.0 0.00 0.03 0.00 58 1002.5
20260903074503 66 212 0.0 0.0 0.00 0.03 0.00 58 1002.5
20260903073007 66 212 0.0 0.0 0.00 0.03 0.00 59 1002.6
20260903071502 66 212 0.0 0.9 0.00 0.03 0.00 58 1002.8
20260903070001 67 212 0.0 0.0 0.00 0.03 0.00 57 1002.7
20260903064600 67 213 0.0 0.0 0.00 0.03 0.00 60 1002.8
20260903063058 66 209 0.0 1.7 0.00 0.03 0.00 61 1002.9
20260903061603 66 237 0.0 0.9 0.00 0.03 0.00 63 1002.9
20260903060053 65 205 0.0 0.0 0.00 0.03 0.00 64 1003.0
20260903054551 65 203 0.0 0.0 0.00 0.03 0.03 64 1003.0
20260903053105 65 200 0.0 0.0 0.00 0.03 0.03 65 1002.8
20260903051551 65 184 0.0 2.6 0.00 0.03 0.03 68 1002.8
20260903050049 66 183 0.0 0.0 0.00 0.03 0.03 65 1002.5
20260903044549 65 188 0.0 0.0 0.00 0.03 0.03 69 1003.5
20260903043048 64 321 0.0 0.0 0.00 0.03 0.03 70 1003.2
20260903041549 64 321 0.0 0.0 0.00 0.03 0.03 73 1003.5
20260903040048 64 321 0.0 0.0 0.01 0.03 0.03 75 1003.2
20260903034547 64 321 0.0 0.0 0.01 0.03 0.03 75 1003.0